Lexington Weather

Lexington, Massachusetts, USA

29°F
1/23/2020 9:33am 
  • Lexington Conditions: Partly cloudy
  • Temperature: 29.1°F / -1.6°CWarmer 4.8°F than last hour.
  • Dew Point: 20.3°FIncreased 2.2°Fsince last hour.
  • Relative Humidity: 69%Decreased 8.0% since last hour.
  • Wind: Wind from SW SW 1 mph, 10-min avg: Calm, gust: 1 mph
  • Barometer: 30.34 in Steady
  • Visibility: 10 miles
  • Snow Today: 0.0 in
  •   

Regional Weather Roundup
for Boston / Norton, MA

        
000
ASUS41 KBOX 221410
RWRBOX

REGIONAL WEATHER ROUNDUP
NATIONAL WEATHER SERVICE BOSTON/NORTON MA
900 AM EST WED JAN 22 2020

NOTE:  "FAIR" INDICATES FEW OR NO CLOUDS BELOW 12,000 FEET WITH NO 
SIGNIFICANT WEATHER AND/OR OBSTRUCTIONS TO VISIBILITY.

MAZALL-221500-
EASTERN MASSACHUSETTS
  
CITY           SKY/WX    TMP DP  RH WIND       PRES   REMARKS
BOSTON         FAIR      29  12  49 CALM      30.45R                  
BEVERLY        FAIR      18   8  65 W5        30.44R WCI  11          
LAWRENCE       FAIR      15   6  67 SW3       30.45S                  
BEDFORD        FAIR      15   5  64 CALM      30.44R                  
BLUE HILL        N/A     20   9  62 NW7       30.39R WCI  11          
NORWOOD        FAIR      21   9  59 CALM      30.46R                  
MARSHFIELD     FAIR      23  10  58 W5        30.45R WCI  17          
PLYMOUTH       FAIR      20  11  68 W5        30.46R WCI  13          
TAUNTON        FAIR      19  11  70 CALM      30.46R                  
NEW BEDFORD    FAIR      21  13  71 CALM      30.46R                  
$$

MAZALL-221500-
CAPE COD AND THE ISLANDS
  
CITY           SKY/WX    TMP DP  RH WIND       PRES   REMARKS
FALMOUTH       SUNNY     23   9  54 NW5       30.44R WCI  17          
HYANNIS        FAIR      29   9  43 CALM      30.44R                  
CHATHAM        FAIR      28  18  66 CALM      30.45R                  
PROVINCETOWN   FAIR      31  20  63 W8        30.46R WCI  23          
NANTUCKET      FAIR      30  14  51 NW5       30.45R WCI  25          
MARTHAS VNYRD  FAIR      27  16  63 CALM      30.45R                  
$$
 
MAZALL-221500-
CENTRAL AND WESTERN MASSACHUSETTS
  
CITY           SKY/WX    TMP DP  RH WIND       PRES   REMARKS
WORCESTER      FAIR      20   9  62 SW7       30.38R WCI  11          
FITCHBURG      FAIR      17   9  70 CALM      30.43S                  
ORANGE         FAIR       4  -1  80 CALM      30.45R                  
SPRINGFIELD    MOSUNNY    6   1  79 CALM      30.46R                  
WESTFIELD      SUNNY     10   7  85 CALM      30.47R                  
NORTH ADAMS    CLOUDY    24  15  68 W7        30.42R WCI  16          
PITTSFIELD     CLOUDY    23  15  71 VRB5      30.37R WCI  17          
$$
 
RIZALL-221500-
RHODE ISLAND
  
CITY           SKY/WX    TMP DP  RH WIND       PRES   REMARKS
PROVIDENCE     FAIR      22  12  65 CALM      30.47R                  
NEWPORT        FAIR      26  15  63 NW8       30.45R WCI  18          
BLOCK ISLAND   FAIR      28  14  55 VRB5      30.47R WCI  23          
SMITHFIELD     FAIR      21  11  65 CALM      30.43R                  
WESTERLY       FAIR      26  10  50 N5        30.47R WCI  20          
$$
 
CTZALL-221500-
CONNECTICUT
  
CITY           SKY/WX    TMP DP  RH WIND       PRES   REMARKS
BRADLEY INTL   FAIR      13   5  70 CALM      30.47R                  
HARTFORD       FAIR      16  11  80 CALM      30.49R                  
BRIDGEPORT     FAIR      27  13  55 N3        30.48S                  
DANBURY        FAIR      15   8  73 CALM      30.47R                  
GROTON         FAIR      22  12  65 N3        30.48R                  
NEW HAVEN      FAIR      24  15  68 CALM      30.48R                  
CHESTER        NOT AVBL                                               
MERIDEN        FAIR      17  11  77 CALM      30.48S                  
WILLIMANTIC    FAIR      11   5  77 CALM      30.49R                  
OXFORD         FAIR      19  11  70 N5        30.43S WCI  12          
$$

MEZ002-015-021-024-NHZ003-005-008-011-012-014-VTZ005-008-221500-
NORTHERN NEW ENGLAND
  
CITY           SKY/WX    TMP DP  RH WIND       PRES   REMARKS
PORTLAND ME    FAIR      19   9  65 CALM      30.42S                  
BANGOR ME      PTSUNNY   17  11  77 CALM      30.41R                  
CONCORD NH     FAIR      10   4  76 CALM      30.41F                  
MANCHESTER NH  FAIR      13   6  74 CALM      30.41R                  
NASHUA NH      FAIR      11   5  77 CALM      30.44R                  
PORTSMOUTH NH  SUNNY     18   6  61 W3        30.41R                  
JAFFREY NH     FAIR      10   5  80 S5        30.37S WCI   2          
KEENE NH       FAIR       9   5  84 CALM      30.45R                  
BURLINGTON VT  PTSUNNY   25  16  68 S9        30.35S WCI  15          
MT. WASHINGTON PTSUNNY   14   3  62 NW41        N/A  WCI -10          
$$

NYZ052-076-221500-
EASTERN NEW YORK
  
CITY           SKY/WX    TMP DP  RH WIND       PRES   REMARKS
ALBANY         CLOUDY    23  14  68 S7        30.46R WCI  15          
NEW YORK CITY  FAIR      29  13  51 NW3       30.49R                  
$$
 
ANZALL-221500-
MARINE OBSERVATIONS
  
STATION/POSITION TIME  TEMP    WIND        PRES    VSBY  WAVE
                       AIR SEA DIR/SP/G                  HT/PER
                 (UTC) (F)     (DEG/KT/KT) (MB)    (MI)  (FT/S)
BOSTON BUOY      1350   29 42  290/  6/ 10 1030.4R         1/11
BUZZARDS BAY     1300   27     330/  9/ 10 1031.3R
NANTUCKET SOUND  1340                      1031.3
MASS BAY-STELLWA 1304   27 41  320/ 10/ 12 1028.4R  1 7/8  1/ 2
ISLE OF SHOALS   1300   22     280/  8/  8 1029.9R
S OF BLOCK IS    1330      45                N/A           2/10
$$

......................KEY.........................
  SKY/WX - SKY CONDITION/PRESENT WEATHER
  TMP    - TEMPERATURE IN FAHRENHEIT
  DWPT   - DEWPOINT IN FAHRENHEIT
  RH     - RELATIVE HUMIDITY IN PERCENT
  WIND   - DIRECTION AND SPEED IN MPH
  PRES   - MEAN SEA LEVEL PRESSURE IN INCHES OF HG
  WCI    - WIND CHILL INDEX
  VSB    - VISIBILITY IN MILES
  HX     - HEAT INDEX
  TC     - TEMPERATURE IN CELSIUS
  VRB    - VARIABLE WIND DIRECTION
  N/A    - NOT AVAILABLE
  
      

Other recent Regional Weather Roundups

Thu Jan 23, 9:10am

Thu Jan 23, 9:00am

Thu Jan 23, 8:10am

Thu Jan 23, 8:00am

Thu Jan 23, 7:10am

Thu Jan 23, 7:01am

Thu Jan 23, 6:10am

Thu Jan 23, 6:00am

Thu Jan 23, 5:10am

Thu Jan 23, 5:00am

Thu Jan 23, 4:10am

Thu Jan 23, 4:01am

Thu Jan 23, 3:10am

Thu Jan 23, 3:00am

Thu Jan 23, 2:10am

Thu Jan 23, 2:00am

Thu Jan 23, 1:10am

Thu Jan 23, 1:00am

Thu Jan 23, 12:10am

Thu Jan 23, 12:00am

Wed Jan 22, 11:10pm

Wed Jan 22, 11:01pm

Wed Jan 22, 10:10pm

Wed Jan 22, 10:00pm

Wed Jan 22, 9:10pm

Wed Jan 22, 9:00pm

Wed Jan 22, 8:10pm

Wed Jan 22, 8:01pm

Wed Jan 22, 7:10pm

Wed Jan 22, 7:00pm

Wed Jan 22, 6:10pm

Wed Jan 22, 6:01pm

Wed Jan 22, 5:10pm

Wed Jan 22, 5:00pm

Wed Jan 22, 4:10pm

Wed Jan 22, 4:00pm

Wed Jan 22, 3:10pm

Wed Jan 22, 3:00pm

Wed Jan 22, 2:10pm

Wed Jan 22, 2:00pm

Wed Jan 22, 1:10pm

Wed Jan 22, 1:00pm

Wed Jan 22, 12:10pm

Wed Jan 22, 12:00pm

Wed Jan 22, 11:10am

Wed Jan 22, 11:00am

Wed Jan 22, 10:10am

Wed Jan 22, 10:01am

Wed Jan 22, 9:00am

Wed Jan 22, 8:10am

Wed Jan 22, 8:00am

Wed Jan 22, 7:10am

Wed Jan 22, 7:00am

Wed Jan 22, 6:10am

Wed Jan 22, 6:00am

Wed Jan 22, 5:10am

Wed Jan 22, 5:00am

Wed Jan 22, 4:10am

Wed Jan 22, 4:00am

Wed Jan 22, 3:10am

Wed Jan 22, 3:01am

Wed Jan 22, 2:10am

Wed Jan 22, 2:00am

Wed Jan 22, 1:10am

Wed Jan 22, 1:00am

Wed Jan 22, 12:10am

Wed Jan 22, 12:00am

Tue Jan 21, 11:10pm

Tue Jan 21, 11:00pm

Tue Jan 21, 10:10pm

Tue Jan 21, 10:00pm

Tue Jan 21, 9:10pm

Tue Jan 21, 9:01pm

Tue Jan 21, 8:10pm

Tue Jan 21, 8:00pm

Tue Jan 21, 7:10pm

Tue Jan 21, 7:00pm

Tue Jan 21, 6:10pm

Tue Jan 21, 6:01pm

Tue Jan 21, 5:10pm

Tue Jan 21, 5:00pm

Tue Jan 21, 4:10pm

Tue Jan 21, 4:00pm

Tue Jan 21, 3:10pm

Tue Jan 21, 3:01pm

Tue Jan 21, 2:10pm

Tue Jan 21, 2:00pm

Tue Jan 21, 1:10pm

Tue Jan 21, 1:00pm

Tue Jan 21, 12:10pm

Tue Jan 21, 12:00pm

Tue Jan 21, 11:10am

Tue Jan 21, 11:00am

Tue Jan 21, 10:10am

Tue Jan 21, 10:00am

Tue Jan 21, 9:10am

Tue Jan 21, 9:00am

Tue Jan 21, 8:10am

Tue Jan 21, 8:00am

Tue Jan 21, 7:10am

Tue Jan 21, 7:00am

Tue Jan 21, 6:10am

Tue Jan 21, 6:00am

Tue Jan 21, 5:10am

Tue Jan 21, 5:00am

Tue Jan 21, 4:10am

Tue Jan 21, 4:00am

Tue Jan 21, 3:10am

Tue Jan 21, 3:00am

Tue Jan 21, 2:10am

Tue Jan 21, 2:01am

Tue Jan 21, 1:10am

Tue Jan 21, 1:00am

Tue Jan 21, 12:10am

Tue Jan 21, 12:00am

Mon Jan 20, 11:10pm

Mon Jan 20, 11:00pm

Mon Jan 20, 10:10pm

Mon Jan 20, 10:00pm

Mon Jan 20, 9:10pm

Mon Jan 20, 9:00pm

Mon Jan 20, 8:10pm

Mon Jan 20, 8:00pm

Mon Jan 20, 7:10pm

Mon Jan 20, 7:00pm

Mon Jan 20, 6:10pm

Mon Jan 20, 6:00pm

Mon Jan 20, 5:10pm

Mon Jan 20, 5:00pm

Mon Jan 20, 4:10pm

Mon Jan 20, 4:01pm

Mon Jan 20, 3:10pm

Mon Jan 20, 3:00pm

Mon Jan 20, 2:10pm

Mon Jan 20, 2:00pm

Mon Jan 20, 1:10pm

Mon Jan 20, 1:00pm

Mon Jan 20, 12:10pm

Mon Jan 20, 12:00pm

Mon Jan 20, 11:10am

Mon Jan 20, 11:00am

Mon Jan 20, 10:10am

Mon Jan 20, 10:00am

Meta data:

ID: 8464b82c-5963-4c4d-a5d4-3e422f85da5f
Link: https://api.weather.gov/products/8464b82c-5963-4c4d-a5d4-3e422f85da5f